{"data":{"norad_id":59684,"epoch":"2026-05-24T13:39:42.680736Z","epoch_age_seconds":115418,"freshness":"FRESH","line1":"1 59684U 24086C   26144.56924399 -.00000286  00000+0 -85377-6 0  9999","line2":"2 59684  43.0009 343.8729 0001570 274.6297  85.4375 15.27580131115817","mean_motion":15.27580131,"eccentricity":0.000157,"inclination_deg":43.0009,"raan_deg":343.8729,"arg_perigee_deg":274.6297,"mean_anomaly_deg":85.4375,"bstar":-8.5377e-7,"rev_number":11581,"period_min":94.266740629661,"perigee_km":481.97149762306,"apogee_km":484.12590993405,"semimajor_km":6861.1857037786,"source":"CELESTRAK","updated_at":"2026-05-25T13:38:19.023266Z"}}